Location: Unspecified
(49.2170°N, 0.0000°E)
Time: 15:18:21
(UTC+00:00)

Envisat - Pass Details

Date: 03 December 2020
Orbit: 764 x 766 km, 98.1° (Epoch: 20 January)

Event Time Altitude Azimuth Distance (km) Brightness Sun altitude
Rises 05:42:38 0° 17° (NNE) 3,246 6.3 -17.7°
Reaches altitude 10° 05:45:00 10° 21° (NNE) 2,315 5.6 -17.4°
Maximum altitude 05:50:02 58° 101° (E) 893 3.7 -16.6°
Drops below altitude 10° 05:55:01 10° 180° (S) 2,297 5.7 -15.8°
Sets 05:57:21 0° 184° (S) 3,218 6.4 -15.4°
